Tracking 19709 objects as of 20-Jun-2019
HD Live streaming from Space Station
objects crossing your sky now

ATLAS 2 CENTAUR R/B

Track ATLAS 2 CENTAUR R/B now!
10-day predictions


NORAD ID: 23468
Int'l Code: 1995-003B
Perigee: 275.7 km
Apogee: 20,584.1 km
Inclination: 26.7 °
Period: 361.2 minutes
Semi major axis: 16800 km
RCS: 17.7119 m2 (large)
Launch date: January 29, 1995
Source: United States (US)
Launch site: AIR FORCE EASTERN TEST RANGE (AFETR)

Note: This is a ROCKET BODY
aabbcc
Your satellite tracking list
Your tracking list is empty




NASA's NSSDC Master Catalog

Two Line Element Set (TLE):
1 23468U 95003B   19171.17598904  .00002460  00000-0  41204-3 0  9998
2 23468  26.6578 134.9855 6043861 147.6102 270.9259  3.98662435310670
Source of the keplerian elements: AFSPC